Weather in Nikolayevskoye

Russia / Karachay-Cherkess Republic     44°07′03″N   42°07′59″E
temp.,
°C
wind,
m/s
gust,
m/s
humid.,
%
clouds,
%
prec.,
mm/h
press.,
hPa
HPBL,
m
18 april, sun
sun1800:00+5ese2297100 0.0 1021106
03:00+5ese1191100 0.0 101914
06:00+7w1185100 0.0 101711
09:00+11ese1271100 0.3 1016263
12:00+16n3360100 0.8 1013770
15:00+16nnw35658 2.2 1014939
18:00+12ne228658 1.6 1015328
21:00+10s2189100 1.9 101613
19 april, mon
mon1900:00+10ssw2275100 0.0 101618
03:00+10s2275100 0.0 101524
06:00+11s3373100 0.0 101641
09:00+10nnw2385100 0.2 1018373
12:00+16ne336175 0.1 1014823
15:00+15e337087 1.1 1014676
18:00+14nnw2279100 1.2 101469
21:00+11sse1196100 2.5 101518
20 april, tue
tue2000:00+11se2284100 0.0 101320
03:00+11sse2273100 0.0 101016
06:00+13sse3364100 0.0 100731
09:00+18sse3456100 0.1 100579
12:00+22ssw81339100 0.0 10041683
15:00+21ssw71140100 0.0 10051507
18:00+15n2272100 0.1 100770
21:00+9nnw4483100 0.6 1012467
21 april, wed
wed2100:00+7nne3481100 0.1 1012396
03:00+6e11897 0.1 101412
06:00+8sw0187100 0.4 1015123
09:00+7n2298100 4.6 1018248
12:00+6nne3398100 0.6 1018358
15:00+5nne2298100 1.4 1021274
18:00+5e1195100 0.9 1022188
21:00+5ne2397100 1.3 1023320
22 april, thu
thu2200:00+5ene1298100 0.3 1022162
03:00+5ene1197100 0.3 1022123
06:00+5nne1198100 0.1 1022113
09:00+6nne1197100 0.3 1022196
12:00+6ne2296100 0.1 1022285
15:00+8ene228598 0.2 1021486
18:00+8ne2283100 0.0 1020326
21:00+6wnw0198100 0.1 102267